カタログに戻る

STARLINK-3077

運用中通信VLEO
NORAD 49133·PAYLOAD·🇺🇸 United States

打ち上げ Sep 14, 2021 から Vandenberg Space Force Base

Loading…

次のパス (今後24時間)

TLE

最新Source: CelesTrak SupGP

元期: Sep 14, 2026, 20:59 UTC

1 49133C 21082D   26257.87479167 -.00034378  00000+0 -28814-2 0  2572
2 49133  70.0017 177.4520 0002938 264.8067 211.2456 14.98343321    18

AllMySatでSTARLINK-3077をリアルタイム追跡

Download on the App Store